Find Local Weather

World > North America > United States > New Jersey

Fairfield, New Jersey Regional Weather

Lat: 40.88N, Lon: 74.31W
Wx Zone: NJZ105
Feedback
Expires:201809231300;;083240
ASUS41 KOKX 231206
RWROKX

Regional Weather Roundup
National Weather Service New York NY
800 AM EDT SUN SEP 23 2018

Note: "FAIR" indicates few or no clouds below 12,000 feet with no
significant weather and/or obstructions to visibility.


NJZ001-105-106-008-010-013-015-019>022-104-231300-
New Jersey
  
CITY           SKY/WX    TMP DP  RH WIND       PRES   REMARKS
Newark/Liberty LGT RAIN  59  52  77 N10       30.22R                  
Teterboro      FAIR      60  50  69 N6        30.22R                  
Caldwell       FAIR      57  52  83 NE3       30.24R                  
Somerville     FAIR      57  54  89 CALM      30.21S                  
Linden         DRIZZLE   60  51  72 CALM      30.22S                  
Perth Amboy      N/A     59 N/A N/A NE7         N/A                   
Sussex         FAIR      53  50  89 NE5       30.25R                  
Andover          N/A     54  50  86 VRB3      30.25R                  
Trenton        LGT RAIN  58  54  86 N5        30.22R                  
Millville      CLOUDY    62  57  83 VRB6      30.18S                  
Atlantic City  PTSUNNY   63  60  90 NE7       30.17F                  
Wrightstown    LGT RAIN  58  56  93 NE6       30.17                   
Toms River     LGT RAIN  60  59  96 N3        30.20S                  
Belmar         LGT RAIN  61  58  90 N5        30.21S                  
$$
 

SKY/WX - Weather  TMP - Temperature  DP - Dew Point  RH - Relative Humidity
WIND - Wind Direction/Speed PRES - Barometric Pressure